Year,Month,Day,Hour,Minute,Value (Times are PST for temperature in C)
2017,07,17,00,00,11.70
2017,07,17,00,01,11.70
2017,07,17,00,02,11.70
2017,07,17,00,03,11.70
2017,07,17,00,04,11.70
2017,07,17,00,05,11.70
2017,07,17,00,06,11.70
2017,07,17,00,07,11.60
2017,07,17,00,08,11.60
2017,07,17,00,09,11.60
2017,07,17,00,10,11.60
2017,07,17,00,11,11.60
2017,07,17,00,12,11.60
2017,07,17,00,13,11.60
2017,07,17,00,14,11.60
2017,07,17,00,15,11.60
2017,07,17,00,16,11.60
2017,07,17,00,17,11.60
2017,07,17,00,18,11.70
2017,07,17,00,19,11.70
2017,07,17,00,20,11.70
2017,07,17,00,21,11.70
2017,07,17,00,22,11.70
2017,07,17,00,23,11.70
2017,07,17,00,24,11.70
2017,07,17,00,25,11.70
2017,07,17,00,26,11.70
2017,07,17,00,27,11.70
2017,07,17,00,28,11.70
2017,07,17,00,29,11.70
2017,07,17,00,30,11.70
2017,07,17,00,31,11.70
2017,07,17,00,32,11.70
2017,07,17,00,33,11.70
2017,07,17,00,34,11.70
2017,07,17,00,35,11.70
2017,07,17,00,36,11.70
2017,07,17,00,37,11.70
2017,07,17,00,38,11.70
2017,07,17,00,39,11.60
2017,07,17,00,40,11.60
2017,07,17,00,41,11.60
2017,07,17,00,42,11.60
2017,07,17,00,43,11.60
2017,07,17,00,44,11.60
2017,07,17,00,45,11.60
2017,07,17,00,46,11.60
2017,07,17,00,47,11.50
2017,07,17,00,48,11.50
2017,07,17,00,49,11.50
2017,07,17,00,50,11.50
2017,07,17,00,51,11.50
2017,07,17,00,52,11.50
2017,07,17,00,53,11.40
2017,07,17,00,54,11.40
2017,07,17,00,55,11.50
2017,07,17,00,56,11.50
2017,07,17,00,57,11.50
2017,07,17,00,58,11.50
2017,07,17,00,59,11.40
2017,07,17,01,00,11.40
2017,07,17,01,01,11.40
2017,07,17,01,02,11.40
2017,07,17,01,03,11.40
2017,07,17,01,04,11.40
2017,07,17,01,05,11.40
2017,07,17,01,06,11.40
2017,07,17,01,07,11.40
2017,07,17,01,08,11.40
2017,07,17,01,09,11.40
2017,07,17,01,10,11.40
2017,07,17,01,11,11.30
2017,07,17,01,12,11.30
2017,07,17,01,13,11.30
2017,07,17,01,14,11.30
2017,07,17,01,15,11.30
2017,07,17,01,16,11.30
2017,07,17,01,17,11.30
2017,07,17,01,18,11.20
2017,07,17,01,19,11.20
2017,07,17,01,20,11.20
2017,07,17,01,21,11.20
2017,07,17,01,22,11.20
2017,07,17,01,23,11.20
2017,07,17,01,24,11.20
2017,07,17,01,25,11.20
2017,07,17,01,26,11.20
2017,07,17,01,27,11.10
2017,07,17,01,28,11.10
2017,07,17,01,29,11.10
2017,07,17,01,30,11.00
2017,07,17,01,31,11.00
2017,07,17,01,32,11.00
2017,07,17,01,33,10.90
2017,07,17,01,34,10.90
2017,07,17,01,35,10.90
2017,07,17,01,36,10.90
2017,07,17,01,37,10.90
2017,07,17,01,38,10.90
2017,07,17,01,39,10.90
2017,07,17,01,40,10.80
2017,07,17,01,41,10.80
2017,07,17,01,42,10.80
2017,07,17,01,43,10.80
2017,07,17,01,44,10.80
2017,07,17,01,45,10.80
2017,07,17,01,46,10.80
2017,07,17,01,47,10.80
2017,07,17,01,48,10.80
2017,07,17,01,49,10.80
2017,07,17,01,50,10.70
2017,07,17,01,51,10.70
2017,07,17,01,52,10.70
2017,07,17,01,53,10.70
2017,07,17,01,54,10.70
2017,07,17,01,55,10.70
2017,07,17,01,56,10.60
2017,07,17,01,57,10.60
2017,07,17,01,58,10.60
2017,07,17,01,59,10.60
2017,07,17,02,00,10.60
2017,07,17,02,01,10.60
2017,07,17,02,02,10.60
2017,07,17,02,03,10.60
2017,07,17,02,04,10.50
2017,07,17,02,05,10.50
2017,07,17,02,06,10.50
2017,07,17,02,07,10.50
2017,07,17,02,08,10.50
2017,07,17,02,09,10.50
2017,07,17,02,10,10.40
2017,07,17,02,11,10.40
2017,07,17,02,12,10.40
2017,07,17,02,13,10.40
2017,07,17,02,14,10.40
2017,07,17,02,15,10.30
2017,07,17,02,16,10.30
2017,07,17,02,17,10.30
2017,07,17,02,18,10.30
2017,07,17,02,19,10.30
2017,07,17,02,20,10.30
2017,07,17,02,21,10.30
2017,07,17,02,22,10.30
2017,07,17,02,23,10.30
2017,07,17,02,24,10.20
2017,07,17,02,25,10.20
2017,07,17,02,26,10.20
2017,07,17,02,27,10.20
2017,07,17,02,28,10.20
2017,07,17,02,29,10.20
2017,07,17,02,30,10.20
2017,07,17,02,31,10.20
2017,07,17,02,32,10.20
2017,07,17,02,33,10.20
2017,07,17,02,34,10.20
2017,07,17,02,35,10.20
2017,07,17,02,36,10.10
2017,07,17,02,37,10.10
2017,07,17,02,38,10.10
2017,07,17,02,39,10.10
2017,07,17,02,40,10.10
2017,07,17,02,41,10.10
2017,07,17,02,42,10.10
2017,07,17,02,43,10.10
2017,07,17,02,44,10.10
2017,07,17,02,45,10.10
2017,07,17,02,46,10.10
2017,07,17,02,47,10.10
2017,07,17,02,48,10.10
2017,07,17,02,49,10.10
2017,07,17,02,50,10.10
2017,07,17,02,51,10.10
2017,07,17,02,52,10.10
2017,07,17,02,53,10.10
2017,07,17,02,54,10.10
2017,07,17,02,55,10.10
2017,07,17,02,56,10.10
2017,07,17,02,57,10.10
2017,07,17,02,58,10.00
2017,07,17,02,59,10.00
2017,07,17,03,00,9.90
2017,07,17,03,01,9.90
2017,07,17,03,02,9.90
2017,07,17,03,03,9.90
2017,07,17,03,04,9.90
2017,07,17,03,05,9.80
2017,07,17,03,06,9.80
2017,07,17,03,07,9.80
2017,07,17,03,08,9.80
2017,07,17,03,09,9.80
2017,07,17,03,10,9.80
2017,07,17,03,11,9.80
2017,07,17,03,12,9.70
2017,07,17,03,13,9.70
2017,07,17,03,14,9.70
2017,07,17,03,15,9.70
2017,07,17,03,16,9.70
2017,07,17,03,17,9.70
2017,07,17,03,18,9.70
2017,07,17,03,19,9.60
2017,07,17,03,20,9.60
2017,07,17,03,21,9.60
2017,07,17,03,22,9.60
2017,07,17,03,23,9.60
2017,07,17,03,24,9.60
2017,07,17,03,25,9.60
2017,07,17,03,26,9.60
2017,07,17,03,27,9.50
2017,07,17,03,28,9.50
2017,07,17,03,29,9.50
2017,07,17,03,30,9.40
2017,07,17,03,31,9.40
2017,07,17,03,32,9.40
2017,07,17,03,33,9.30
2017,07,17,03,34,9.30
2017,07,17,03,35,9.30
2017,07,17,03,36,9.30
2017,07,17,03,37,9.30
2017,07,17,03,38,9.30
2017,07,17,03,39,9.30
2017,07,17,03,40,9.20
2017,07,17,03,41,9.20
2017,07,17,03,42,9.20
2017,07,17,03,43,9.20
2017,07,17,03,44,9.10
2017,07,17,03,45,9.10
2017,07,17,03,46,9.10
2017,07,17,03,47,9.10
2017,07,17,03,48,9.10
2017,07,17,03,49,9.00
2017,07,17,03,50,9.00
2017,07,17,03,51,9.00
2017,07,17,03,52,8.90
2017,07,17,03,53,8.90
2017,07,17,03,54,8.90
2017,07,17,03,55,8.80
2017,07,17,03,56,8.80
2017,07,17,03,57,8.80
2017,07,17,03,58,8.80
2017,07,17,03,59,8.80
2017,07,17,04,00,8.80
2017,07,17,04,01,8.70
2017,07,17,04,02,8.70
2017,07,17,04,03,8.70
2017,07,17,04,04,8.70
2017,07,17,04,05,8.70
2017,07,17,04,06,8.70
2017,07,17,04,07,8.70
2017,07,17,04,08,8.70
2017,07,17,04,09,8.70
2017,07,17,04,10,8.70
2017,07,17,04,11,8.60
2017,07,17,04,12,8.60
2017,07,17,04,13,8.60
2017,07,17,04,14,8.60
2017,07,17,04,15,8.60
2017,07,17,04,16,8.60
2017,07,17,04,17,8.60
2017,07,17,04,18,8.60
2017,07,17,04,19,8.60
2017,07,17,04,20,8.60
2017,07,17,04,21,8.60
2017,07,17,04,22,8.60
2017,07,17,04,23,8.60
2017,07,17,04,24,8.50
2017,07,17,04,25,8.50
2017,07,17,04,26,8.50
2017,07,17,04,27,8.50
2017,07,17,04,28,8.50
2017,07,17,04,29,8.50
2017,07,17,04,30,8.50
2017,07,17,04,31,8.50
2017,07,17,04,32,8.40
2017,07,17,04,33,8.40
2017,07,17,04,34,8.40
2017,07,17,04,35,8.40
2017,07,17,04,36,8.40
2017,07,17,04,37,8.30
2017,07,17,04,38,8.30
2017,07,17,04,39,8.30
2017,07,17,04,40,8.30
2017,07,17,04,41,8.30
2017,07,17,04,42,8.30
2017,07,17,04,43,8.30
2017,07,17,04,44,8.30
2017,07,17,04,45,8.30
2017,07,17,04,46,8.40
2017,07,17,04,47,8.40
2017,07,17,04,48,8.40
2017,07,17,04,49,8.40
2017,07,17,04,50,8.40
2017,07,17,04,51,8.40
2017,07,17,04,52,8.40
2017,07,17,04,53,8.40
2017,07,17,04,54,8.40
2017,07,17,04,55,8.40
2017,07,17,04,56,8.40
2017,07,17,04,57,8.30
2017,07,17,04,58,8.30
2017,07,17,04,59,8.30
2017,07,17,05,00,8.30
2017,07,17,05,01,8.30
2017,07,17,05,02,8.20
2017,07,17,05,03,8.20
2017,07,17,05,04,8.20
2017,07,17,05,05,8.20
2017,07,17,05,06,8.20
2017,07,17,05,07,8.20
2017,07,17,05,08,8.20
2017,07,17,05,09,8.20
2017,07,17,05,10,8.20
2017,07,17,05,11,8.20
2017,07,17,05,12,8.10
2017,07,17,05,13,8.10
2017,07,17,05,14,8.10
2017,07,17,05,15,8.10
2017,07,17,05,16,8.10
2017,07,17,05,17,8.10
2017,07,17,05,18,8.10
2017,07,17,05,19,8.10
2017,07,17,05,20,8.10
2017,07,17,05,21,8.10
2017,07,17,05,22,8.10
2017,07,17,05,23,8.10
2017,07,17,05,24,8.10
2017,07,17,05,25,8.10
2017,07,17,05,26,8.00
2017,07,17,05,27,8.00
2017,07,17,05,28,8.00
2017,07,17,05,29,7.90
2017,07,17,05,30,7.90
2017,07,17,05,31,7.90
2017,07,17,05,32,7.90
2017,07,17,05,33,7.90
2017,07,17,05,34,7.90
2017,07,17,05,35,7.80
2017,07,17,05,36,7.80
2017,07,17,05,37,7.80
2017,07,17,05,38,7.80
2017,07,17,05,39,7.80
2017,07,17,05,40,7.80
2017,07,17,05,41,7.90
2017,07,17,05,42,7.90
2017,07,17,05,43,7.90
2017,07,17,05,44,7.90
2017,07,17,05,45,7.90
2017,07,17,05,46,7.90
2017,07,17,05,47,8.00
2017,07,17,05,48,8.00
2017,07,17,05,49,8.10
2017,07,17,05,50,8.10
2017,07,17,05,51,8.10
2017,07,17,05,52,8.20
2017,07,17,05,53,8.20
2017,07,17,05,54,8.20
2017,07,17,05,55,8.30
2017,07,17,05,56,8.30
2017,07,17,05,57,8.30
2017,07,17,05,58,8.30
2017,07,17,05,59,8.40
2017,07,17,06,00,8.40
2017,07,17,06,01,8.40
2017,07,17,06,02,8.40
2017,07,17,06,03,8.50
2017,07,17,06,04,8.50
2017,07,17,06,05,8.50
2017,07,17,06,06,8.60
2017,07,17,06,07,8.60
2017,07,17,06,08,8.70
2017,07,17,06,09,8.70
2017,07,17,06,10,8.80
2017,07,17,06,11,8.80
2017,07,17,06,12,8.80
2017,07,17,06,13,8.90
2017,07,17,06,14,9.00
2017,07,17,06,15,9.00
2017,07,17,06,16,9.10
2017,07,17,06,17,9.10
2017,07,17,06,18,9.20
2017,07,17,06,19,9.20
2017,07,17,06,20,9.30
2017,07,17,06,21,9.30
2017,07,17,06,22,9.40
2017,07,17,06,23,9.40
2017,07,17,06,24,9.40
2017,07,17,06,25,9.50
2017,07,17,06,26,9.50
2017,07,17,06,27,9.60
2017,07,17,06,28,9.60
2017,07,17,06,29,9.60
2017,07,17,06,30,9.70
2017,07,17,06,31,9.80
2017,07,17,06,32,9.80
2017,07,17,06,33,9.80
2017,07,17,06,34,9.80
2017,07,17,06,35,9.80
2017,07,17,06,36,9.90
2017,07,17,06,37,9.90
2017,07,17,06,38,9.90
2017,07,17,06,39,10.00
2017,07,17,06,40,10.10
2017,07,17,06,41,10.10
2017,07,17,06,42,10.20
2017,07,17,06,43,10.30
2017,07,17,06,44,10.30
2017,07,17,06,45,10.30
2017,07,17,06,46,10.40
2017,07,17,06,47,10.50
2017,07,17,06,48,10.50
2017,07,17,06,49,10.60
2017,07,17,06,50,10.60
2017,07,17,06,51,10.60
2017,07,17,06,52,10.60
2017,07,17,06,53,10.70
2017,07,17,06,54,10.80
2017,07,17,06,55,10.90
2017,07,17,06,56,10.90
2017,07,17,06,57,11.00
2017,07,17,06,58,11.10
2017,07,17,06,59,11.20
2017,07,17,07,00,11.30
2017,07,17,07,01,11.30
2017,07,17,07,02,11.40
2017,07,17,07,03,11.50
2017,07,17,07,04,11.50
2017,07,17,07,05,11.60
2017,07,17,07,06,11.70
2017,07,17,07,07,11.70
2017,07,17,07,08,11.80
2017,07,17,07,09,11.90
2017,07,17,07,10,12.00
2017,07,17,07,11,12.10
2017,07,17,07,12,12.10
2017,07,17,07,13,12.20
2017,07,17,07,14,12.30
2017,07,17,07,15,12.40
2017,07,17,07,16,12.50
2017,07,17,07,17,12.60
2017,07,17,07,18,12.70
2017,07,17,07,19,12.70
2017,07,17,07,20,12.70
2017,07,17,07,21,12.80
2017,07,17,07,22,12.90
2017,07,17,07,23,12.90
2017,07,17,07,24,12.90
2017,07,17,07,25,13.00
2017,07,17,07,26,13.10
2017,07,17,07,27,13.20
2017,07,17,07,28,13.20
2017,07,17,07,29,13.30
2017,07,17,07,30,13.40
2017,07,17,07,31,13.40
2017,07,17,07,32,13.50
2017,07,17,07,33,13.60
2017,07,17,07,34,13.70
2017,07,17,07,35,13.70
2017,07,17,07,36,13.80
2017,07,17,07,37,13.80
2017,07,17,07,38,13.80
2017,07,17,07,39,13.90
2017,07,17,07,40,13.90
2017,07,17,07,41,14.00
2017,07,17,07,42,14.10
2017,07,17,07,43,14.10
2017,07,17,07,44,14.20
2017,07,17,07,45,14.20
2017,07,17,07,46,14.30
2017,07,17,07,47,14.30
2017,07,17,07,48,14.40
2017,07,17,07,49,14.50
2017,07,17,07,50,14.60
2017,07,17,07,51,14.70
2017,07,17,07,52,14.80
2017,07,17,07,53,14.90
2017,07,17,07,54,15.00
2017,07,17,07,55,15.00
2017,07,17,07,56,15.10
2017,07,17,07,57,15.20
2017,07,17,07,58,15.20
2017,07,17,07,59,15.20
2017,07,17,08,00,15.20
2017,07,17,08,01,15.20
2017,07,17,08,02,15.20
2017,07,17,08,03,15.30
2017,07,17,08,04,15.30
2017,07,17,08,05,15.30
2017,07,17,08,06,15.40
2017,07,17,08,07,15.40
2017,07,17,08,08,15.40
2017,07,17,08,09,15.40
2017,07,17,08,10,15.40
2017,07,17,08,11,15.40
2017,07,17,08,12,15.40
2017,07,17,08,13,15.40
2017,07,17,08,14,15.30
2017,07,17,08,15,15.30
2017,07,17,08,16,15.20
2017,07,17,08,17,15.20
2017,07,17,08,18,15.20
2017,07,17,08,19,15.20
2017,07,17,08,20,15.10
2017,07,17,08,21,15.10
2017,07,17,08,22,15.10
2017,07,17,08,23,15.10
2017,07,17,08,24,15.10
2017,07,17,08,25,15.10
2017,07,17,08,26,15.10
2017,07,17,08,27,15.10
2017,07,17,08,28,15.20
2017,07,17,08,29,15.20
2017,07,17,08,30,15.20
2017,07,17,08,31,15.30
2017,07,17,08,32,15.40
2017,07,17,08,33,15.40
2017,07,17,08,34,15.50
2017,07,17,08,35,15.50
2017,07,17,08,36,15.70
2017,07,17,08,37,15.80
2017,07,17,08,38,15.80
2017,07,17,08,39,15.80
2017,07,17,08,40,15.80
2017,07,17,08,41,15.70
2017,07,17,08,42,15.70
2017,07,17,08,43,15.70
2017,07,17,08,44,15.60
2017,07,17,08,45,15.60
2017,07,17,08,46,15.50
2017,07,17,08,47,15.50
2017,07,17,08,48,15.40
2017,07,17,08,49,15.50
2017,07,17,08,50,15.50
2017,07,17,08,51,15.60
2017,07,17,08,52,15.70
2017,07,17,08,53,15.80
2017,07,17,08,54,15.90
2017,07,17,08,55,16.10
2017,07,17,08,56,16.20
2017,07,17,08,57,16.30
2017,07,17,08,58,16.40
2017,07,17,08,59,16.40
2017,07,17,09,00,16.40
2017,07,17,09,01,16.30
2017,07,17,09,02,16.20
2017,07,17,09,03,16.20
2017,07,17,09,04,16.10
2017,07,17,09,05,16.10
2017,07,17,09,06,16.10
2017,07,17,09,07,16.20
2017,07,17,09,08,16.30
2017,07,17,09,09,16.40
2017,07,17,09,10,16.40
2017,07,17,09,11,16.60
2017,07,17,09,12,16.60
2017,07,17,09,13,16.70
2017,07,17,09,14,16.80
2017,07,17,09,15,16.90
2017,07,17,09,16,16.90
2017,07,17,09,17,16.90
2017,07,17,09,18,16.70
2017,07,17,09,19,16.50
2017,07,17,09,20,16.40
2017,07,17,09,21,16.20
2017,07,17,09,22,16.20
2017,07,17,09,23,16.20
2017,07,17,09,24,16.30
2017,07,17,09,25,16.40
2017,07,17,09,26,16.50
2017,07,17,09,27,16.70
2017,07,17,09,28,16.80
2017,07,17,09,29,16.90
2017,07,17,09,30,16.90
2017,07,17,09,31,17.00
2017,07,17,09,32,17.00
2017,07,17,09,33,17.10
2017,07,17,09,34,17.20
2017,07,17,09,35,17.30
2017,07,17,09,36,17.40
2017,07,17,09,37,17.60
2017,07,17,09,38,17.60
2017,07,17,09,39,17.50
2017,07,17,09,40,17.60
2017,07,17,09,41,17.60
2017,07,17,09,42,17.80
2017,07,17,09,43,17.80
2017,07,17,09,44,18.00
2017,07,17,09,45,18.10
2017,07,17,09,46,18.20
2017,07,17,09,47,18.30
2017,07,17,09,48,18.30
2017,07,17,09,49,18.20
2017,07,17,09,50,18.20
2017,07,17,09,51,18.20
2017,07,17,09,52,18.20
2017,07,17,09,53,18.30
2017,07,17,09,54,18.30
2017,07,17,09,55,18.40
2017,07,17,09,56,18.50
2017,07,17,09,57,18.50
2017,07,17,09,58,18.50
2017,07,17,09,59,18.50
2017,07,17,10,00,18.50
2017,07,17,10,01,18.40
2017,07,17,10,02,18.30
2017,07,17,10,03,18.20
2017,07,17,10,04,18.20
2017,07,17,10,05,18.20
2017,07,17,10,06,18.10
2017,07,17,10,07,18.00
2017,07,17,10,08,18.00
2017,07,17,10,09,18.10
2017,07,17,10,10,18.20
2017,07,17,10,11,18.20
2017,07,17,10,12,18.10
2017,07,17,10,13,17.90
2017,07,17,10,14,17.80
2017,07,17,10,15,17.70
2017,07,17,10,16,17.60
2017,07,17,10,17,17.50
2017,07,17,10,18,17.40
2017,07,17,10,19,17.40
2017,07,17,10,20,17.30
2017,07,17,10,21,17.30
2017,07,17,10,22,17.20
2017,07,17,10,23,17.20
2017,07,17,10,24,17.20
2017,07,17,10,25,17.30
2017,07,17,10,26,17.40
2017,07,17,10,27,17.60
2017,07,17,10,28,17.70
2017,07,17,10,29,17.90
2017,07,17,10,30,18.00
2017,07,17,10,31,18.10
2017,07,17,10,32,18.20
2017,07,17,10,33,18.20
2017,07,17,10,34,18.20
2017,07,17,10,35,18.20
2017,07,17,10,36,18.20
2017,07,17,10,37,18.30
2017,07,17,10,38,18.20
2017,07,17,10,39,18.20
2017,07,17,10,40,18.10
2017,07,17,10,41,18.00
2017,07,17,10,42,18.00
2017,07,17,10,43,18.00
2017,07,17,10,44,18.10
2017,07,17,10,45,18.00
2017,07,17,10,46,18.00
2017,07,17,10,47,18.00
2017,07,17,10,48,18.10
2017,07,17,10,49,18.10
2017,07,17,10,50,18.20
2017,07,17,10,51,18.20
2017,07,17,10,52,18.20
2017,07,17,10,53,18.20
2017,07,17,10,54,18.30
2017,07,17,10,55,18.30
2017,07,17,10,56,18.40
2017,07,17,10,57,18.50
2017,07,17,10,58,18.60
2017,07,17,10,59,18.70
2017,07,17,11,00,18.70
2017,07,17,11,01,18.80
2017,07,17,11,02,18.80
2017,07,17,11,03,18.80
2017,07,17,11,04,18.80
2017,07,17,11,05,18.80
2017,07,17,11,06,18.80
2017,07,17,11,07,18.70
2017,07,17,11,08,18.70
2017,07,17,11,09,18.60
2017,07,17,11,10,18.60
2017,07,17,11,11,18.60
2017,07,17,11,12,18.70
2017,07,17,11,13,18.70
2017,07,17,11,14,18.70
2017,07,17,11,15,18.70
2017,07,17,11,16,18.80
2017,07,17,11,17,18.80
2017,07,17,11,18,18.90
2017,07,17,11,19,18.90
2017,07,17,11,20,19.00
2017,07,17,11,21,19.10
2017,07,17,11,22,19.10
2017,07,17,11,23,18.90
2017,07,17,11,24,18.80
2017,07,17,11,25,18.60
2017,07,17,11,26,18.50
2017,07,17,11,27,18.60
2017,07,17,11,28,18.60
2017,07,17,11,29,18.60
2017,07,17,11,30,18.70
2017,07,17,11,31,18.70
2017,07,17,11,32,18.70
2017,07,17,11,33,18.70
2017,07,17,11,34,18.80
2017,07,17,11,35,18.90
2017,07,17,11,36,19.00
2017,07,17,11,37,19.20
2017,07,17,11,38,19.30
2017,07,17,11,39,19.30
2017,07,17,11,40,19.30
2017,07,17,11,41,19.20
2017,07,17,11,42,19.10
2017,07,17,11,43,19.20
2017,07,17,11,44,19.20
2017,07,17,11,45,19.30
2017,07,17,11,46,19.30
2017,07,17,11,47,19.30
2017,07,17,11,48,19.30
2017,07,17,11,49,19.40
2017,07,17,11,50,19.40
2017,07,17,11,51,19.30
2017,07,17,11,52,19.30
2017,07,17,11,53,19.30
2017,07,17,11,54,19.20
2017,07,17,11,55,19.10
2017,07,17,11,56,19.10
2017,07,17,11,57,19.10
2017,07,17,11,58,19.10
2017,07,17,11,59,19.00
2017,07,17,12,00,19.00
2017,07,17,12,01,19.10
2017,07,17,12,02,19.10
2017,07,17,12,03,19.10
2017,07,17,12,04,19.10
2017,07,17,12,05,19.00
2017,07,17,12,06,19.00
2017,07,17,12,07,19.00
2017,07,17,12,08,19.20
2017,07,17,12,09,19.30
2017,07,17,12,10,19.50
2017,07,17,12,11,19.50
2017,07,17,12,12,19.60
2017,07,17,12,13,19.60
2017,07,17,12,14,19.50
2017,07,17,12,15,19.30
2017,07,17,12,16,19.30
2017,07,17,12,17,19.20
2017,07,17,12,18,19.10
2017,07,17,12,19,19.20
2017,07,17,12,20,19.40
2017,07,17,12,21,19.40
2017,07,17,12,22,19.60
2017,07,17,12,23,19.70
2017,07,17,12,24,19.70
2017,07,17,12,25,19.70
2017,07,17,12,26,19.70
2017,07,17,12,27,19.50
2017,07,17,12,28,19.40
2017,07,17,12,29,19.30
2017,07,17,12,30,19.30
2017,07,17,12,31,19.50
2017,07,17,12,32,19.60
2017,07,17,12,33,19.60
2017,07,17,12,34,19.50
2017,07,17,12,35,19.50
2017,07,17,12,36,19.50
2017,07,17,12,37,19.70
2017,07,17,12,38,19.80
2017,07,17,12,39,20.00
2017,07,17,12,40,20.00
2017,07,17,12,41,19.90
2017,07,17,12,42,19.80
2017,07,17,12,43,19.70
2017,07,17,12,44,19.60
2017,07,17,12,45,19.60
2017,07,17,12,46,19.60
2017,07,17,12,47,19.60
2017,07,17,12,48,19.60
2017,07,17,12,49,19.60
2017,07,17,12,50,19.60
2017,07,17,12,51,19.60
2017,07,17,12,52,19.70
2017,07,17,12,53,19.90
2017,07,17,12,54,20.00
2017,07,17,12,55,20.10
2017,07,17,12,56,20.20
2017,07,17,12,57,20.40
2017,07,17,12,58,20.40
2017,07,17,12,59,20.50
2017,07,17,13,00,20.50
2017,07,17,13,01,20.50
2017,07,17,13,02,20.50
2017,07,17,13,03,20.40
2017,07,17,13,04,20.30
2017,07,17,13,05,20.30
2017,07,17,13,06,20.30
2017,07,17,13,07,20.30
2017,07,17,13,08,20.30
2017,07,17,13,09,20.30
2017,07,17,13,10,20.30
2017,07,17,13,11,20.30
2017,07,17,13,12,20.30
2017,07,17,13,13,20.20
2017,07,17,13,14,20.30
2017,07,17,13,15,20.40
2017,07,17,13,16,20.40
2017,07,17,13,17,20.20
2017,07,17,13,18,20.10
2017,07,17,13,19,20.00
2017,07,17,13,20,19.90
2017,07,17,13,21,19.90
2017,07,17,13,22,20.00
2017,07,17,13,23,20.00
2017,07,17,13,24,20.10
2017,07,17,13,25,20.20
2017,07,17,13,26,20.40
2017,07,17,13,27,20.40
2017,07,17,13,28,20.50
2017,07,17,13,29,20.60
2017,07,17,13,30,20.60
2017,07,17,13,31,20.60
2017,07,17,13,32,20.50
2017,07,17,13,33,20.40
2017,07,17,13,34,20.40
2017,07,17,13,35,20.50
2017,07,17,13,36,20.50
2017,07,17,13,37,20.30
2017,07,17,13,38,20.20
2017,07,17,13,39,20.20
2017,07,17,13,40,20.20
2017,07,17,13,41,20.20
2017,07,17,13,42,20.30
2017,07,17,13,43,20.50
2017,07,17,13,44,20.70
2017,07,17,13,45,20.80
2017,07,17,13,46,20.80
2017,07,17,13,47,20.70
2017,07,17,13,48,20.60
2017,07,17,13,49,20.60
2017,07,17,13,50,20.60
2017,07,17,13,51,20.70
2017,07,17,13,52,20.80
2017,07,17,13,53,20.80
2017,07,17,13,54,20.80
2017,07,17,13,55,20.80
2017,07,17,13,56,20.80
2017,07,17,13,57,20.80
2017,07,17,13,58,20.90
2017,07,17,13,59,21.00
2017,07,17,14,00,21.00
2017,07,17,14,01,21.00
2017,07,17,14,02,20.90
2017,07,17,14,03,20.90
2017,07,17,14,04,20.80
2017,07,17,14,05,20.90
2017,07,17,14,06,20.90
2017,07,17,14,07,20.80
2017,07,17,14,08,20.80
2017,07,17,14,09,20.90
2017,07,17,14,10,20.80
2017,07,17,14,11,20.70
2017,07,17,14,12,20.60
2017,07,17,14,13,20.60
2017,07,17,14,14,20.70
2017,07,17,14,15,20.80
2017,07,17,14,16,20.70
2017,07,17,14,17,20.70
2017,07,17,14,18,20.70
2017,07,17,14,19,20.60
2017,07,17,14,20,20.60
2017,07,17,14,21,20.60
2017,07,17,14,22,20.60
2017,07,17,14,23,20.70
2017,07,17,14,24,20.90
2017,07,17,14,25,21.00
2017,07,17,14,26,21.10
2017,07,17,14,27,21.20
2017,07,17,14,28,21.30
2017,07,17,14,29,21.30
2017,07,17,14,30,21.40
2017,07,17,14,31,21.50
2017,07,17,14,32,21.70
2017,07,17,14,33,21.80
2017,07,17,14,34,21.90
2017,07,17,14,35,22.00
2017,07,17,14,36,22.20
2017,07,17,14,37,22.20
2017,07,17,14,38,22.30
2017,07,17,14,39,22.30
2017,07,17,14,40,22.20
2017,07,17,14,41,22.10
2017,07,17,14,42,21.90
2017,07,17,14,43,21.70
2017,07,17,14,44,21.60
2017,07,17,14,45,21.50
2017,07,17,14,46,21.40
2017,07,17,14,47,21.40
2017,07,17,14,48,21.40
2017,07,17,14,49,21.40
2017,07,17,14,50,21.40
2017,07,17,14,51,21.40
2017,07,17,14,52,21.40
2017,07,17,14,53,21.40
2017,07,17,14,54,21.30
2017,07,17,14,55,21.30
2017,07,17,14,56,21.10
2017,07,17,14,57,20.90
2017,07,17,14,58,20.70
2017,07,17,14,59,20.70
2017,07,17,15,00,20.80
2017,07,17,15,01,20.80
2017,07,17,15,02,20.80
2017,07,17,15,03,20.80
2017,07,17,15,04,20.80
2017,07,17,15,05,20.90
2017,07,17,15,06,20.80
2017,07,17,15,07,20.90
2017,07,17,15,08,21.00
2017,07,17,15,09,21.10
2017,07,17,15,10,21.10
2017,07,17,15,11,21.20
2017,07,17,15,12,21.20
2017,07,17,15,13,21.30
2017,07,17,15,14,21.40
2017,07,17,15,15,21.30
2017,07,17,15,16,21.20
2017,07,17,15,17,20.80
2017,07,17,15,18,20.30
2017,07,17,15,19,19.90
2017,07,17,15,20,19.80
2017,07,17,15,21,19.70
2017,07,17,15,22,19.80
2017,07,17,15,23,19.80
2017,07,17,15,24,19.90
2017,07,17,15,25,19.90
2017,07,17,15,26,20.00
2017,07,17,15,27,20.20
2017,07,17,15,28,20.30
2017,07,17,15,29,20.50
2017,07,17,15,30,20.60
2017,07,17,15,31,20.60
2017,07,17,15,32,20.30
2017,07,17,15,33,20.00
2017,07,17,15,34,19.80
2017,07,17,15,35,19.50
2017,07,17,15,36,19.30
2017,07,17,15,37,19.10
2017,07,17,15,38,18.90
2017,07,17,15,39,18.90
2017,07,17,15,40,18.90
2017,07,17,15,41,18.90
2017,07,17,15,42,18.90
2017,07,17,15,43,18.90
2017,07,17,15,44,19.00
2017,07,17,15,45,19.00
2017,07,17,15,46,19.10
2017,07,17,15,47,19.20
2017,07,17,15,48,19.20
2017,07,17,15,49,19.10
2017,07,17,15,50,19.00
2017,07,17,15,51,18.90
2017,07,17,15,52,19.00
2017,07,17,15,53,19.10
2017,07,17,15,54,19.10
2017,07,17,15,55,19.20
2017,07,17,15,56,19.30
2017,07,17,15,57,19.30
2017,07,17,15,58,19.40
2017,07,17,15,59,19.60
2017,07,17,16,00,19.60
2017,07,17,16,01,19.50
2017,07,17,16,02,19.40
2017,07,17,16,03,19.40
2017,07,17,16,04,19.30
2017,07,17,16,05,19.30
2017,07,17,16,06,19.20
2017,07,17,16,07,19.20
2017,07,17,16,08,19.40
2017,07,17,16,09,19.40
2017,07,17,16,10,19.30
2017,07,17,16,11,19.30
2017,07,17,16,12,19.30
2017,07,17,16,13,19.40
2017,07,17,16,14,19.40
2017,07,17,16,15,19.40
2017,07,17,16,16,19.30
2017,07,17,16,17,19.10
2017,07,17,16,18,18.90
2017,07,17,16,19,18.80
2017,07,17,16,20,18.80
2017,07,17,16,21,18.90
2017,07,17,16,22,18.90
2017,07,17,16,23,18.90
2017,07,17,16,24,18.80
2017,07,17,16,25,18.60
2017,07,17,16,26,18.50
2017,07,17,16,27,18.40
2017,07,17,16,28,18.30
2017,07,17,16,29,18.30
2017,07,17,16,30,18.20
2017,07,17,16,31,18.10
2017,07,17,16,32,18.10
2017,07,17,16,33,18.00
2017,07,17,16,34,18.00
2017,07,17,16,35,17.90
2017,07,17,16,36,17.90
2017,07,17,16,37,17.90
2017,07,17,16,38,18.00
2017,07,17,16,39,18.00
2017,07,17,16,40,17.90
2017,07,17,16,41,17.80
2017,07,17,16,42,17.60
2017,07,17,16,43,17.40
2017,07,17,16,44,17.20
2017,07,17,16,45,17.20
2017,07,17,16,46,17.10
2017,07,17,16,47,16.90
2017,07,17,16,48,16.80
2017,07,17,16,49,16.60
2017,07,17,16,50,16.60
2017,07,17,16,51,16.60
2017,07,17,16,52,16.50
2017,07,17,16,53,16.50
2017,07,17,16,54,16.60
2017,07,17,16,55,16.60
2017,07,17,16,56,16.60
2017,07,17,16,57,16.70
2017,07,17,16,58,16.70
2017,07,17,16,59,16.80
2017,07,17,17,00,16.80
2017,07,17,17,01,16.90
2017,07,17,17,02,16.90
2017,07,17,17,03,17.00
2017,07,17,17,04,17.00
2017,07,17,17,05,16.90
2017,07,17,17,06,16.80
2017,07,17,17,07,16.80
2017,07,17,17,08,16.70
2017,07,17,17,09,16.60
2017,07,17,17,10,16.50
2017,07,17,17,11,16.40
2017,07,17,17,12,16.30
2017,07,17,17,13,16.20
2017,07,17,17,14,16.20
2017,07,17,17,15,16.20
2017,07,17,17,16,16.20
2017,07,17,17,17,16.10
2017,07,17,17,18,16.10
2017,07,17,17,19,16.10
2017,07,17,17,20,16.20
2017,07,17,17,21,16.20
2017,07,17,17,22,16.20
2017,07,17,17,23,16.10
2017,07,17,17,24,16.00
2017,07,17,17,25,15.90
2017,07,17,17,26,15.80
2017,07,17,17,27,15.80
2017,07,17,17,28,15.80